Location: Harwich
(41.7160°N, 69.9939°W)
Time: 06:07:10
(UTC+02:00)

NOAA 19 - Visible Passes

Search period start: 19 September 2024 00:00
Search period end: 29 September 2024 00:00
Orbit: 838 x 859 km, 99.0° (Epoch: 18 September)

Date Brightness Start Highest point End Pass type
(mag) Time Alt. Az. Time Alt. Az. Time Alt. Az.
19 Sep 7.1 01:42:52 10° ENE 01:44:09 11° NE 01:45:42 10° NE visible
19 Sep 5.5 03:24:50 59° N 03:24:50 59° N 03:29:18 10° N visible
19 Sep 7.9 05:06:48 12° WNW 05:06:48 12° WNW 05:07:46 10° WNW visible
20 Sep 5.6 03:12:23 51° NNE 03:12:23 51° NNE 03:16:49 10° N visible
20 Sep 7.7 04:54:22 16° WNW 04:54:22 16° WNW 04:56:09 10° NW visible
21 Sep 5.8 02:59:57 42° NE 02:59:57 42° NE 03:04:17 10° N visible
21 Sep 7.4 04:41:56 19° WNW 04:41:56 19° WNW 04:44:14 10° NW visible
22 Sep 6.0 02:47:30 35° NE 02:47:30 35° NE 02:51:42 10° N visible
22 Sep 7.2 04:29:29 23° WNW 04:29:29 23° WNW 04:32:10 10° NW visible
23 Sep 6.2 02:35:04 28° NE 02:35:04 28° NE 02:39:04 10° N visible
23 Sep 7.0 04:17:02 28° NW 04:17:02 28° NW 04:19:59 10° NNW visible
24 Sep 6.5 02:22:37 23° NE 02:22:37 23° NE 02:26:20 10° NNE visible
24 Sep 6.7 04:04:36 32° NW 04:04:36 32° NW 04:07:43 10° NNW visible
25 Sep 6.7 02:10:11 18° NE 02:10:11 18° NE 02:13:30 10° NNE visible
25 Sep 6.5 03:52:09 36° NNW 03:52:09 36° NNW 03:55:24 10° NNW visible
26 Sep 6.9 01:57:44 15° ENE 01:57:44 15° ENE 02:00:29 10° NNE visible
26 Sep 6.3 03:39:42 38° NNW 03:39:42 38° NNW 03:43:00 10° NNW visible
27 Sep 7.1 01:45:17 11° ENE 01:45:25 11° NE 01:47:02 10° NE visible
27 Sep 6.2 03:27:15 38° N 03:27:15 38° N 03:30:34 10° N visible
28 Sep 6.3 03:14:49 36° N 03:14:49 36° N 03:18:05 10° N visible
28 Sep 8.0 04:56:47 12° NW 04:56:47 12° NW 04:57:23 10° NW visible
